BREEZE-KM R/B, 43754

Orbit data source: Space-Track

BREEZE-KM R/B, 43754 is space debris in LEO originally from a launch on Fri, 30 Nov 2018 UTC launched from the Plesetsk Missile And Space Complex (PKMTR). Debris objects in space refer to the collection of defunct objects orbiting the Earth. Examples of debris include non-operational satellites, rocket bodies, and fragments generated from explosions, collisions, or faulty payload assembly.

Loading next visibility...
Identifier
43754, 2018-097D
Orbit
LEO
Last TLE update
14 hours ago
Origin
Manufacturer
Khrunichev
Mission
Spacecraft
Bus & Motor
BRIZ, S5.92
Mass
2,370 kg wet, 2,370 kg dry
Launch date (UTC)
2018-11-30 (7 years ago)
Launch vehicle
Unknown
Launch site
Plesetsk Missile And Space Complex (PKMTR)
Object type
Payload
Rocket body
Debris
Shape & HBR
Hex Cyl + 1 Rod, 4.1 m
Radar Cross Section
10.190 m², Large (>1 m²)

Expand to show TLE details & history

TLE from 14 hours ago
0 BREEZE-KM R/B
1 43754U 18097D   25167.20460171  .00000012  00000-0 -42962-5 0  9992
2 43754  82.5141 342.4942 0223264  81.7053 280.9296 12.80108798305599
Epoch: 2025-06-16T04:54Z
TLE epoch observation values (Epoch: 2025-06-16T04:54:37.587Z)
Latitude
-0.00007°
Longitude
4.11888°
Altitude
1,314.838 km
Speed
7.213 km/s
True Right ascension
22h 49m 58s
True Declination
0° 00' 00"
Sunlit
Object was in daylight at epoch
Visualization orbit readout
Latitude
82.49525°
Longitude
86.66262°
Altitude
1,184.107 km
Speed
7.348 km/s
Apparent Right ascension
17h 22m 26s
Apparent Declination
40° 51' 12"
Sunlit
Object is in daylight
Visualization observer readout
Local Sidereal Time
05:09:59
Azimuth
357.616° N
Elevation
-9.181°
Doppler factor
1
Orbital elements
Apogee altitude
1,510.61 km
Perigee altitude
1,166.048 km
Semi-major axis
7,716.466 km
Eccentricity
0.02233
Inclination
82.5141°
RAAN
342.4942°
Arg. of periapsis
81.7053°
True anomaly
Unknown
Mean anomaly
280.9296°
Eccentric anomaly
Unknown
Mean motion
3.20196 °/min
Orbital period
112.43 mins
BSTAR
-0.0000042962
Loading maneuver chart data...
Loading SW <> Apogee altitude chart data...
Loading historical data...
Loading historical data...
Loading historical data...
Loading historical data...
Loading historical data...
Loading historical data...
Loading historical data...
Other satellites on launch #97 in the year 2018 (2018-11-30 UTC)

BREEZE-KM R/B Visibility forecast

Observer location: undefined°, undefined°

Span
Click to sort rows by Start time (UTC) header in descending order
Start Az.
Max El. time (UTC)
Max El. Az.
Max El.
End time (UTC)
End Az.
12 mins2025-06-16 22:23:21.856Z16.708° NNE2025-06-16 22:28:21.856Z65.558° ENE26.639°2025-06-16 22:35:21.856Z131.243° SE
12 mins2025-06-17 00:17:21.856Z334.453° NNW2025-06-17 00:22:21.856Z270.807° WNW36.797°2025-06-17 00:29:21.856Z199.436° SSW
9 mins2025-06-17 11:03:21.856Z126.432° SE2025-06-17 11:07:21.856Z87.156° E22.67°2025-06-17 11:12:21.856Z37.742° NE
13 mins2025-06-17 12:54:21.856Z207.186° SW2025-06-17 13:00:21.856Z277.342° WNW39.36°2025-06-17 13:07:21.856Z358.708° N
|